Time,TemperatureF,DewpointF,PressureIn,WindDirection,WindDirectionDegrees,WindSpeedMPH,WindSpeedGustMPH,Humidity,HourlyPrecipIn,Conditions,Clouds,dailyrainin,SoftwareType,DateUTC
2013-02-23 00:06:00,46.7,43.0,30.21,South,190,2.0,6.0,85,0.00,,,0.00,weatherlink.com 1.10,2013-02-23 08:06:00,
2013-02-23 00:20:00,46.6,42.0,30.21,SSW,212,2.0,4.0,85,0.00,,,0.00,weatherlink.com 1.10,2013-02-23 08:20:00,
2013-02-23 00:35:00,46.9,42.0,30.21,SSW,199,5.0,5.0,84,0.00,,,0.00,weatherlink.com 1.10,2013-02-23 08:35:00,
2013-02-23 00:50:00,47.2,43.0,30.21,SW,215,1.0,4.0,84,0.00,,,0.00,weatherlink.com 1.10,2013-02-23 08:50:00,
2013-02-23 01:05:00,47.2,43.0,30.21,SSW,203,4.0,5.0,84,0.00,,,0.00,weatherlink.com 1.10,2013-02-23 09:05:00,
2013-02-23 01:20:00,47.4,43.0,30.20,South,191,4.0,6.0,84,0.00,,,0.00,weatherlink.com 1.10,2013-02-23 09:20:00,
2013-02-23 01:36:00,47.5,43.0,30.19,SSW,195,2.0,6.0,85,0.00,,,0.00,weatherlink.com 1.10,2013-02-23 09:36:00,
2013-02-23 01:51:00,47.6,44.0,30.19,SSW,198,6.0,7.0,86,0.00,,,0.00,weatherlink.com 1.10,2013-02-23 09:51:00,
2013-02-23 02:07:00,47.7,44.0,30.19,SSW,194,2.0,7.0,87,0.00,,,0.00,weatherlink.com 1.10,2013-02-23 10:07:00,
2013-02-23 02:21:00,47.7,44.0,30.18,SSW,207,6.0,9.0,88,0.00,,,0.00,weatherlink.com 1.10,2013-02-23 10:21:00,
2013-02-23 02:36:00,47.7,45.0,30.18,SW,235,2.0,7.0,90,0.00,,,0.00,weatherlink.com 1.10,2013-02-23 10:36:00,
2013-02-23 02:51:00,47.5,45.0,30.18,WSW,238,2.0,5.0,92,0.00,,,0.00,weatherlink.com 1.10,2013-02-23 10:51:00,
2013-02-23 03:06:00,47.1,45.0,30.17,SSW,207,1.0,3.0,93,0.00,,,0.00,weatherlink.com 1.10,2013-02-23 11:06:00,
2013-02-23 03:21:00,46.7,45.0,30.18,SSW,212,0.0,2.0,93,0.00,,,0.00,weatherlink.com 1.10,2013-02-23 11:21:00,
2013-02-23 03:36:00,46.2,45.0,30.18,SSW,207,0.0,0.0,94,0.00,,,0.00,weatherlink.com 1.10,2013-02-23 11:36:00,
2013-02-23 03:51:00,45.9,45.0,30.18,SE,125,0.0,0.0,95,0.00,,,0.00,weatherlink.com 1.10,2013-02-23 11:51:00,
2013-02-23 04:06:00,45.7,44.0,30.17,SW,214,0.0,0.0,94,0.00,,,0.00,weatherlink.com 1.10,2013-02-23 12:06:00,
2013-02-23 04:21:00,45.4,44.0,30.18,West,273,0.0,0.0,93,0.00,,,0.00,weatherlink.com 1.10,2013-02-23 12:21:00,
2013-02-23 04:36:00,44.6,42.0,30.18,South,190,0.0,0.0,91,0.00,,,0.00,weatherlink.com 1.10,2013-02-23 12:36:00,
2013-02-23 04:51:00,43.7,41.0,30.19,SSE,155,0.0,0.0,91,0.00,,,0.00,weatherlink.com 1.10,2013-02-23 12:51:00,
2013-02-23 05:06:00,43.8,41.0,30.18,WSW,243,1.0,3.0,91,0.00,,,0.00,weatherlink.com 1.10,2013-02-23 13:06:00,
2013-02-23 05:21:00,43.4,40.0,30.19,SW,221,0.0,2.0,89,0.00,,,0.00,weatherlink.com 1.10,2013-02-23 13:21:00,
2013-02-23 05:36:00,44.1,40.0,30.20,West,263,1.0,2.0,85,0.00,,,0.00,weatherlink.com 1.10,2013-02-23 13:36:00,
2013-02-23 05:51:00,44.6,39.0,30.20,NE,46,0.0,3.0,82,0.00,,,0.00,weatherlink.com 1.10,2013-02-23 13:51:00,
2013-02-23 06:06:00,44.5,39.0,30.21,NNW,339,0.0,3.0,82,0.00,,,0.00,weatherlink.com 1.10,2013-02-23 14:06:00,
2013-02-23 06:21:00,44.5,39.0,30.21,North,360,6.0,8.0,81,0.00,,,0.00,weatherlink.com 1.10,2013-02-23 14:21:00,
2013-02-23 06:36:00,45.7,39.0,30.22,North,4,5.0,11.0,76,0.00,,,0.00,weatherlink.com 1.10,2013-02-23 14:36:00,
2013-02-23 06:51:00,45.9,38.0,30.22,WNW,301,5.0,8.0,73,0.00,,,0.00,weatherlink.com 1.10,2013-02-23 14:51:00,
2013-02-23 07:06:00,45.2,37.0,30.23,WNW,297,0.0,5.0,73,0.00,,,0.00,weatherlink.com 1.10,2013-02-23 15:06:00,
2013-02-23 07:21:00,44.8,37.0,30.23,North,11,3.0,5.0,74,0.00,,,0.00,weatherlink.com 1.10,2013-02-23 15:21:00,
2013-02-23 07:36:00,45.6,37.0,30.24,NW,308,1.0,12.0,71,0.00,,,0.00,weatherlink.com 1.10,2013-02-23 15:36:00,
2013-02-23 07:51:00,46.6,36.0,30.25,North,1,7.0,11.0,67,0.00,,,0.00,weatherlink.com 1.10,2013-02-23 15:51:00,
2013-02-23 08:06:00,47.2,35.0,30.25,NNW,327,2.0,9.0,64,0.00,,,0.00,weatherlink.com 1.10,2013-02-23 16:06:00,
2013-02-23 08:21:00,47.9,36.0,30.26,North,349,3.0,7.0,63,0.00,,,0.00,weatherlink.com 1.10,2013-02-23 16:21:00,
2013-02-23 08:37:00,48.3,35.0,30.26,North,360,5.0,8.0,60,0.00,,,0.00,weatherlink.com 1.10,2013-02-23 16:37:00,
2013-02-23 08:51:00,48.8,35.0,30.27,East,84,3.0,11.0,59,0.00,,,0.00,weatherlink.com 1.10,2013-02-23 16:51:00,
2013-02-23 09:06:00,49.4,35.0,30.27,North,350,4.0,7.0,57,0.00,,,0.00,weatherlink.com 1.10,2013-02-23 17:06:00,
2013-02-23 09:22:00,50.2,35.0,30.27,NNE,19,1.0,10.0,56,0.00,,,0.00,weatherlink.com 1.10,2013-02-23 17:22:00,
2013-02-23 09:37:00,51.1,35.0,30.27,NE,56,2.0,9.0,55,0.00,,,0.00,weatherlink.com 1.10,2013-02-23 17:37:00,
2013-02-23 09:52:00,52.0,36.0,30.27,NNW,337,2.0,9.0,54,0.00,,,0.00,weatherlink.com 1.10,2013-02-23 17:52:00,
2013-02-23 10:07:00,52.2,35.0,30.27,NNW,343,1.0,9.0,52,0.00,,,0.00,weatherlink.com 1.10,2013-02-23 18:07:00,
2013-02-23 10:22:00,53.4,34.0,30.26,WNW,297,4.0,10.0,49,0.00,,,0.00,weatherlink.com 1.10,2013-02-23 18:22:00,
2013-02-23 10:37:00,53.8,36.0,30.26,NW,305,0.0,13.0,51,0.00,,,0.00,weatherlink.com 1.10,2013-02-23 18:37:00,
2013-02-23 10:52:00,54.6,35.0,30.25,NNW,328,3.0,11.0,48,0.00,,,0.00,weatherlink.com 1.10,2013-02-23 18:52:00,
2013-02-23 11:07:00,54.5,34.0,30.25,NE,38,3.0,13.0,47,0.00,,,0.00,weatherlink.com 1.10,2013-02-23 19:07:00,
2013-02-23 11:22:00,55.8,35.0,30.25,WSW,249,1.0,10.0,46,0.00,,,0.00,weatherlink.com 1.10,2013-02-23 19:22:00,
2013-02-23 11:37:00,56.2,34.0,30.25,West,275,3.0,9.0,44,0.00,,,0.00,weatherlink.com 1.10,2013-02-23 19:37:00,
2013-02-23 11:52:00,57.6,34.0,30.25,NNW,339,1.0,11.0,41,0.00,,,0.00,weatherlink.com 1.10,2013-02-23 19:52:00,
2013-02-23 12:07:00,57.5,34.0,30.24,NW,320,1.0,14.0,41,0.00,,,0.00,weatherlink.com 1.10,2013-02-23 20:07:00,
2013-02-23 12:22:00,57.9,34.0,30.24,West,270,4.0,9.0,40,0.00,,,0.00,weatherlink.com 1.10,2013-02-23 20:22:00,
2013-02-23 12:37:00,58.2,32.0,30.22,WNW,291,6.0,10.0,38,0.00,,,0.00,weatherlink.com 1.10,2013-02-23 20:37:00,
2013-02-23 12:52:00,58.2,32.0,30.22,NW,307,1.0,10.0,38,0.00,,,0.00,weatherlink.com 1.10,2013-02-23 20:52:00,
2013-02-23 13:07:00,58.8,33.0,30.21,NNE,13,0.0,12.0,38,0.00,,,0.00,weatherlink.com 1.10,2013-02-23 21:07:00,
2013-02-23 13:22:00,59.7,33.0,30.20,NW,317,2.0,8.0,37,0.00,,,0.00,weatherlink.com 1.10,2013-02-23 21:22:00,
2013-02-23 13:37:00,60.0,33.0,30.20,NE,55,2.0,9.0,37,0.00,,,0.00,weatherlink.com 1.10,2013-02-23 21:37:00,
2013-02-23 13:52:00,59.3,31.0,30.19,NNW,330,7.0,12.0,34,0.00,,,0.00,weatherlink.com 1.10,2013-02-23 21:52:00,
2013-02-23 14:07:00,59.7,32.0,30.19,West,280,4.0,9.0,35,0.00,,,0.00,weatherlink.com 1.10,2013-02-23 22:07:00,
2013-02-23 14:22:00,60.6,32.0,30.19,NNE,30,3.0,8.0,34,0.00,,,0.00,weatherlink.com 1.10,2013-02-23 22:22:00,
2013-02-23 14:37:00,60.9,32.0,30.18,WNW,297,3.0,7.0,34,0.00,,,0.00,weatherlink.com 1.10,2013-02-23 22:37:00,
2013-02-23 14:52:00,60.4,32.0,30.18,NNW,333,7.0,14.0,34,0.00,,,0.00,weatherlink.com 1.10,2013-02-23 22:52:00,
2013-02-23 15:07:00,60.6,33.0,30.18,West,278,6.0,9.0,35,0.00,,,0.00,weatherlink.com 1.10,2013-02-23 23:07:00,
2013-02-23 15:22:00,60.6,33.0,30.18,ENE,68,2.0,11.0,35,0.00,,,0.00,weatherlink.com 1.10,2013-02-23 23:22:00,
2013-02-23 15:37:00,60.7,33.0,30.17,NNE,25,2.0,7.0,35,0.00,,,0.00,weatherlink.com 1.10,2013-02-23 23:37:00,
2013-02-23 15:52:00,60.8,32.0,30.17,NNW,337,3.0,8.0,34,0.00,,,0.00,weatherlink.com 1.10,2013-02-23 23:52:00,
2013-02-23 16:07:00,60.4,32.0,30.17,WNW,291,5.0,8.0,34,0.00,,,0.00,weatherlink.com 1.10,2013-02-24 00:07:00,
2013-02-23 16:22:00,60.6,33.0,30.17,NW,307,2.0,7.0,35,0.00,,,0.00,weatherlink.com 1.10,2013-02-24 00:22:00,
2013-02-23 16:37:00,59.9,33.0,30.17,WSW,246,2.0,12.0,37,0.00,,,0.00,weatherlink.com 1.10,2013-02-24 00:37:00,
2013-02-23 16:52:00,59.3,34.0,30.17,WNW,300,1.0,11.0,39,0.00,,,0.00,weatherlink.com 1.10,2013-02-24 00:52:00,
2013-02-23 17:07:00,58.1,34.0,30.18,WSW,248,3.0,11.0,41,0.00,,,0.00,weatherlink.com 1.10,2013-02-24 01:07:00,
2013-02-23 17:22:00,57.3,35.0,30.19,NNW,338,6.0,13.0,43,0.00,,,0.00,weatherlink.com 1.10,2013-02-24 01:22:00,
2013-02-23 17:37:00,55.8,35.0,30.19,North,352,6.0,15.0,46,0.00,,,0.00,weatherlink.com 1.10,2013-02-24 01:37:00,
2013-02-23 17:52:00,54.5,35.0,30.20,NNE,29,5.0,13.0,49,0.00,,,0.00,weatherlink.com 1.10,2013-02-24 01:52:00,
2013-02-23 18:07:00,53.6,35.0,30.19,NNW,336,4.0,16.0,50,0.00,,,0.00,weatherlink.com 1.10,2013-02-24 02:07:00,
2013-02-23 18:22:00,52.7,35.0,30.20,NNW,327,9.0,15.0,52,0.00,,,0.00,weatherlink.com 1.10,2013-02-24 02:22:00,
2013-02-23 18:37:00,52.0,36.0,30.21,North,353,4.0,14.0,54,0.00,,,0.00,weatherlink.com 1.10,2013-02-24 02:37:00,
2013-02-23 18:52:00,51.3,36.0,30.21,North,11,6.0,12.0,56,0.00,,,0.00,weatherlink.com 1.10,2013-02-24 02:52:00,
2013-02-23 19:07:00,50.6,36.0,30.22,NNW,332,2.0,7.0,57,0.00,,,0.00,weatherlink.com 1.10,2013-02-24 03:07:00,
2013-02-23 19:22:00,50.0,36.0,30.23,ENE,69,0.0,1.0,59,0.00,,,0.00,weatherlink.com 1.10,2013-02-24 03:22:00,
2013-02-23 19:37:00,49.6,36.0,30.23,NNE,20,1.0,8.0,59,0.00,,,0.00,weatherlink.com 1.10,2013-02-24 03:37:00,
2013-02-23 19:53:00,49.2,36.0,30.23,NNW,328,3.0,8.0,60,0.00,,,0.00,weatherlink.com 1.10,2013-02-24 03:53:00,
2013-02-23 20:08:00,48.9,36.0,30.23,NNE,13,1.0,6.0,61,0.00,,,0.00,weatherlink.com 1.10,2013-02-24 04:08:00,
2013-02-23 20:23:00,48.4,36.0,30.23,NNW,333,2.0,5.0,62,0.00,,,0.00,weatherlink.com 1.10,2013-02-24 04:23:00,
2013-02-23 20:38:00,47.8,36.0,30.24,NNE,16,1.0,4.0,63,0.00,,,0.00,weatherlink.com 1.10,2013-02-24 04:38:00,
2013-02-23 20:53:00,47.6,36.0,30.24,North,352,2.0,5.0,64,0.00,,,0.00,weatherlink.com 1.10,2013-02-24 04:53:00,
2013-02-23 21:08:00,47.3,36.0,30.24,NNE,31,1.0,3.0,64,0.00,,,0.00,weatherlink.com 1.10,2013-02-24 05:08:00,
2013-02-23 21:23:00,46.3,35.0,30.24,SSW,211,0.0,2.0,66,0.00,,,0.00,weatherlink.com 1.10,2013-02-24 05:23:00,
2013-02-23 21:38:00,45.4,35.0,30.25,West,266,0.0,4.0,68,0.00,,,0.00,weatherlink.com 1.10,2013-02-24 05:38:00,
2013-02-23 21:53:00,46.1,36.0,30.25,NW,319,7.0,7.0,67,0.00,,,0.00,weatherlink.com 1.10,2013-02-24 05:53:00,
2013-02-23 22:08:00,46.0,35.0,30.25,ESE,113,1.0,5.0,66,0.00,,,0.00,weatherlink.com 1.10,2013-02-24 06:08:00,
2013-02-23 22:23:00,44.4,35.0,30.25,SSE,159,0.0,3.0,69,0.00,,,0.00,weatherlink.com 1.10,2013-02-24 06:23:00,
2013-02-23 22:38:00,44.5,35.0,30.26,NNW,332,2.0,3.0,70,0.00,,,0.00,weatherlink.com 1.10,2013-02-24 06:38:00,
2013-02-23 22:53:00,44.8,35.0,30.26,West,269,0.0,3.0,69,0.00,,,0.00,weatherlink.com 1.10,2013-02-24 06:53:00,
2013-02-23 23:08:00,44.4,35.0,30.26,NNW,342,1.0,3.0,70,0.00,,,0.00,weatherlink.com 1.10,2013-02-24 07:08:00,
2013-02-23 23:23:00,44.2,35.0,30.25,NE,50,0.0,3.0,70,0.00,,,0.00,weatherlink.com 1.10,2013-02-24 07:23:00,
2013-02-23 23:38:00,44.0,35.0,30.26,SSE,162,0.0,3.0,70,0.00,,,0.00,weatherlink.com 1.10,2013-02-24 07:38:00,
2013-02-23 23:53:00,43.1,35.0,30.26,ESE,121,0.0,3.0,72,0.00,,,0.00,weatherlink.com 1.10,2013-02-24 07:53:00,